Time,TemperatureF,DewpointF,PressureIn,WindDirection,WindDirectionDegrees,WindSpeedMPH,WindSpeedGustMPH,Humidity,HourlyPrecipIn,Conditions,Clouds,dailyrainin,SoftwareType,DateUTC
2013-02-23 00:00:00,30.3,29.0,27.29,NNW,338,3.2,10.1,94,0.00,--,--,0.00,awk and wget,2013-02-23 05:00:00,
2013-02-23 00:05:00,30.2,29.0,27.28,NNW,339,4.7,10.1,95,0.00,--,--,0.00,awk and wget,2013-02-23 05:05:00,
2013-02-23 00:10:00,30.2,29.1,27.29,NNW,338,5.1,9.6,95,0.00,--,--,0.00,awk and wget,2013-02-23 05:10:00,
2013-02-23 00:15:00,30.2,29.2,27.28,NNW,338,4.0,11.2,95,0.00,--,--,0.00,awk and wget,2013-02-23 05:15:00,
2013-02-23 00:20:00,30.3,29.3,27.28,NNW,339,4.5,11.2,95,0.00,--,--,0.00,awk and wget,2013-02-23 05:20:00,
2013-02-23 00:30:00,30.4,29.5,27.28,NNW,339,4.0,10.6,96,0.00,--,--,0.00,awk and wget,2013-02-23 05:30:00,
2013-02-23 00:35:00,30.4,29.5,27.28,NNW,336,2.8,10.4,96,0.00,--,--,0.00,awk and wget,2013-02-23 05:35:00,
2013-02-23 00:40:00,30.4,29.5,27.28,NNW,339,3.0,10.6,96,0.00,--,--,0.00,awk and wget,2013-02-23 05:40:00,
2013-02-23 00:50:00,30.4,29.5,27.28,NNW,337,1.9,10.6,96,0.00,--,--,0.00,awk and wget,2013-02-23 05:50:00,
2013-02-23 01:00:00,30.4,29.6,27.28,NNW,340,3.3,10.2,96,0.00,--,--,0.00,awk and wget,2013-02-23 06:00:00,
2013-02-23 01:10:00,30.4,29.6,27.28,NNW,337,0.7,9.8,96,0.00,--,--,0.00,awk and wget,2013-02-23 06:10:00,
2013-02-23 01:15:00,30.4,29.6,27.28,NNW,339,3.7,9.8,96,0.00,--,--,0.00,awk and wget,2013-02-23 06:15:00,
2013-02-23 01:20:00,30.5,29.7,27.28,NNW,339,1.8,9.8,96,0.00,--,--,0.00,awk and wget,2013-02-23 06:20:00,
2013-02-23 01:30:00,30.5,29.8,27.29,NNW,337,2.2,8.7,96,0.00,--,--,0.00,awk and wget,2013-02-23 06:30:00,
2013-02-23 01:40:00,30.5,29.8,27.27,SE,131,3.5,8.2,97,0.00,--,--,0.00,awk and wget,2013-02-23 06:40:00,
2013-02-23 01:50:00,30.5,29.8,27.26,ESE,102,2.6,8.3,97,0.00,--,--,0.00,awk and wget,2013-02-23 06:50:00,
2013-02-23 02:00:00,30.5,29.8,27.26,NNW,340,1.4,5.1,97,0.00,--,--,0.00,awk and wget,2013-02-23 07:00:00,
2013-02-23 02:10:00,30.5,29.8,27.27,NNW,337,2.1,6.4,97,0.00,--,--,0.00,awk and wget,2013-02-23 07:10:00,
2013-02-23 02:20:00,30.4,29.8,27.26,NNW,336,2.8,5.5,97,0.00,--,--,0.00,awk and wget,2013-02-23 07:20:00,
2013-02-23 02:30:00,30.5,29.8,27.26,NNW,334,4.0,6.1,97,0.00,--,--,0.00,awk and wget,2013-02-23 07:30:00,
2013-02-23 02:40:00,30.5,29.9,27.26,NNW,340,4.7,23.3,97,0.00,--,--,0.00,awk and wget,2013-02-23 07:40:00,
2013-02-23 02:50:00,30.6,30.0,27.25,NNW,335,2.9,6.8,97,0.00,--,--,0.00,awk and wget,2013-02-23 07:50:00,
2013-02-23 03:00:00,30.5,29.9,27.25,NNW,340,2.6,5.5,97,0.00,--,--,0.00,awk and wget,2013-02-23 08:00:00,
2013-02-23 03:10:00,30.5,30.0,27.24,NNW,340,1.8,5.7,97,0.00,--,--,0.00,awk and wget,2013-02-23 08:10:00,
2013-02-23 03:20:00,30.6,30.0,27.24,NNW,338,1.5,6.6,97,0.00,--,--,0.00,awk and wget,2013-02-23 08:20:00,
2013-02-23 03:30:00,30.5,30.0,27.24,SSE,147,3.6,6.6,97,0.00,--,--,0.00,awk and wget,2013-02-23 08:30:00,
2013-02-23 03:40:00,30.5,30.0,27.23,NNW,340,2.7,6.4,97,0.00,--,--,0.00,awk and wget,2013-02-23 08:40:00,
2013-02-23 03:50:00,30.6,30.1,27.24,NNW,337,0.9,5.5,97,0.00,--,--,0.00,awk and wget,2013-02-23 08:50:00,
2013-02-23 03:55:00,30.6,30.1,27.24,NNW,336,0.4,5.2,97,0.00,--,--,0.00,awk and wget,2013-02-23 08:55:00,
2013-02-23 04:00:00,30.6,30.1,27.24,NNW,339,1.3,5.3,97,0.00,--,--,0.00,awk and wget,2013-02-23 09:00:00,
2013-02-23 04:10:00,30.6,30.1,27.23,SE,139,2.1,7.0,97,0.00,--,--,0.00,awk and wget,2013-02-23 09:10:00,
2013-02-23 04:20:00,30.6,30.1,27.23,NNW,339,1.0,7.0,97,0.00,--,--,0.00,awk and wget,2013-02-23 09:20:00,
2013-02-23 04:30:00,30.6,30.1,27.23,NNW,343,2.0,5.6,97,0.00,--,--,0.00,awk and wget,2013-02-23 09:30:00,
2013-02-23 04:40:00,30.6,30.1,27.24,NNW,340,1.4,5.5,97,0.00,--,--,0.00,awk and wget,2013-02-23 09:40:00,
2013-02-23 04:50:00,30.6,30.1,27.23,SE,134,1.9,5.4,98,0.00,--,--,0.00,awk and wget,2013-02-23 09:50:00,
2013-02-23 05:00:00,30.7,30.2,27.24,NNW,339,1.1,5.4,98,0.00,--,--,0.00,awk and wget,2013-02-23 10:00:00,
2013-02-23 05:10:00,30.7,30.2,27.23,NNW,339,0.0,5.1,98,0.00,--,--,0.00,awk and wget,2013-02-23 10:10:00,
2013-02-23 05:20:00,30.7,30.2,27.23,SSE,156,0.4,3.8,98,0.00,--,--,0.00,awk and wget,2013-02-23 10:20:00,
2013-02-23 05:30:00,30.6,30.2,27.23,North,355,1.5,4.5,98,0.00,--,--,0.00,awk and wget,2013-02-23 10:30:00,
2013-02-23 05:40:00,30.6,30.2,27.23,NNW,340,1.5,4.7,98,0.00,--,--,0.00,awk and wget,2013-02-23 10:40:00,
2013-02-23 05:50:00,30.7,30.2,27.23,NNW,340,1.4,4.4,98,0.00,--,--,0.00,awk and wget,2013-02-23 10:50:00,
2013-02-23 06:00:00,30.7,30.2,27.23,ENE,72,0.0,3.8,98,0.00,--,--,0.00,awk and wget,2013-02-23 11:00:00,
2013-02-23 06:10:00,30.7,30.3,27.23,NNW,347,2.2,5.3,98,0.00,--,--,0.00,awk and wget,2013-02-23 11:10:00,
2013-02-23 06:20:00,30.7,30.2,27.23,NNW,340,2.0,5.8,98,0.00,--,--,0.00,awk and wget,2013-02-23 11:20:00,
2013-02-23 06:30:00,30.7,30.3,27.23,NNW,340,1.5,6.0,98,0.00,--,--,0.00,awk and wget,2013-02-23 11:30:00,
2013-02-23 06:40:00,30.7,30.2,27.22,NNW,337,0.0,6.0,98,0.00,--,--,0.00,awk and wget,2013-02-23 11:40:00,
2013-02-23 06:50:00,30.6,30.2,27.21,NE,46,3.2,4.2,98,0.00,--,--,0.00,awk and wget,2013-02-23 11:50:00,
2013-02-23 07:00:00,30.7,30.2,27.21,NNW,341,2.9,6.7,98,0.00,--,--,0.00,awk and wget,2013-02-23 12:00:00,
2013-02-23 07:10:00,30.7,30.2,27.20,ENE,75,4.3,7.4,98,0.00,--,--,0.00,awk and wget,2013-02-23 12:10:00,
2013-02-23 07:20:00,30.7,30.3,27.21,ENE,71,2.1,7.4,98,0.00,--,--,0.00,awk and wget,2013-02-23 12:20:00,
2013-02-23 07:30:00,30.8,30.4,27.21,NE,49,0.0,5.0,98,0.00,--,--,0.00,awk and wget,2013-02-23 12:30:00,
2013-02-23 07:40:00,30.9,30.5,27.21,NNW,337,0.7,4.5,98,0.00,--,--,0.00,awk and wget,2013-02-23 12:40:00,
2013-02-23 07:50:00,30.9,30.5,27.21,NE,54,0.7,4.7,98,0.00,--,--,0.00,awk and wget,2013-02-23 12:50:00,
2013-02-23 08:00:00,31.0,30.6,27.21,NNW,343,0.4,4.5,98,0.00,--,--,0.00,awk and wget,2013-02-23 13:00:00,
2013-02-23 08:10:00,31.1,30.6,27.20,NE,39,2.6,4.2,98,0.00,--,--,0.00,awk and wget,2013-02-23 13:10:00,
2013-02-23 08:15:00,31.1,30.7,27.21,ENE,66,0.9,4.1,98,0.00,--,--,0.00,awk and wget,2013-02-23 13:15:00,
2013-02-23 08:20:00,31.2,30.7,27.20,NNW,340,3.4,5.8,98,0.00,--,--,0.00,awk and wget,2013-02-23 13:20:00,
2013-02-23 08:30:00,31.3,30.8,27.20,NE,54,4.9,5.9,98,0.00,--,--,0.00,awk and wget,2013-02-23 13:30:00,
2013-02-23 08:40:00,31.3,30.9,27.19,ENE,65,4.9,5.9,98,0.00,--,--,0.00,awk and wget,2013-02-23 13:40:00,
2013-02-23 08:50:00,31.3,30.8,27.19,East,79,4.4,8.1,98,0.00,--,--,0.00,awk and wget,2013-02-23 13:50:00,
2013-02-23 09:00:00,31.3,30.9,27.19,ENE,59,5.6,8.6,98,0.00,--,--,0.00,awk and wget,2013-02-23 14:00:00,
2013-02-23 09:05:00,31.4,31.0,27.19,NNW,339,4.9,8.6,98,0.00,--,--,0.00,awk and wget,2013-02-23 14:05:00,
2013-02-23 09:10:00,31.4,31.0,27.19,ENE,77,4.3,8.3,98,0.00,--,--,0.00,awk and wget,2013-02-23 14:10:00,
2013-02-23 09:20:00,31.5,31.1,27.18,NE,42,4.8,8.1,98,0.00,--,--,0.00,awk and wget,2013-02-23 14:20:00,
2013-02-23 09:25:00,31.5,31.1,27.18,NE,47,6.3,9.1,98,0.00,--,--,0.00,awk and wget,2013-02-23 14:25:00,
2013-02-23 09:30:00,31.6,31.1,27.18,NE,55,4.1,9.1,98,0.00,--,--,0.00,awk and wget,2013-02-23 14:30:00,
2013-02-23 09:40:00,31.7,31.3,27.18,ENE,77,2.2,8.1,98,0.00,--,--,0.00,awk and wget,2013-02-23 14:40:00,
2013-02-23 09:50:00,31.7,31.3,27.18,ENE,64,1.7,7.5,98,0.00,--,--,0.00,awk and wget,2013-02-23 14:50:00,
2013-02-23 10:00:00,32.3,31.8,27.18,ESE,106,0.7,6.2,98,0.00,--,--,0.00,awk and wget,2013-02-23 15:00:00,
2013-02-23 10:10:00,33.1,32.6,27.18,ENE,74,1.4,5.3,98,0.00,--,--,0.00,awk and wget,2013-02-23 15:10:00,
2013-02-23 10:20:00,33.9,33.5,27.18,NNW,336,1.6,5.8,98,0.00,--,--,0.00,awk and wget,2013-02-23 15:20:00,
2013-02-23 10:25:00,33.9,33.5,27.17,SSE,153,0.3,5.8,98,0.00,--,--,0.00,awk and wget,2013-02-23 15:25:00,
2013-02-23 10:30:00,34.1,33.7,27.17,NNW,338,0.6,5.8,98,0.00,--,--,0.00,awk and wget,2013-02-23 15:30:00,
2013-02-23 10:40:00,34.3,33.9,27.16,NNW,338,0.8,6.0,98,0.00,--,--,0.00,awk and wget,2013-02-23 15:40:00,
2013-02-23 10:45:00,34.1,33.7,27.17,SE,134,0.1,6.3,98,0.00,--,--,0.00,awk and wget,2013-02-23 15:45:00,
2013-02-23 10:50:00,34.6,34.2,27.16,NE,37,1.2,6.3,98,0.00,--,--,0.00,awk and wget,2013-02-23 15:50:00,
2013-02-23 11:00:00,35.0,34.6,27.16,ENE,78,0.1,6.3,98,0.00,--,--,0.00,awk and wget,2013-02-23 16:00:00,
2013-02-23 11:10:00,35.9,35.5,27.17,SE,139,1.3,7.6,98,0.00,--,--,0.00,awk and wget,2013-02-23 16:10:00,
2013-02-23 11:20:00,36.1,35.7,27.17,NNW,334,2.2,7.1,98,0.00,--,--,0.00,awk and wget,2013-02-23 16:20:00,
2013-02-23 11:30:00,36.8,36.4,27.17,ESE,102,2.2,6.6,98,0.00,--,--,0.00,awk and wget,2013-02-23 16:30:00,
2013-02-23 11:40:00,37.3,36.8,27.17,SE,136,1.0,7.8,98,0.00,--,--,0.00,awk and wget,2013-02-23 16:40:00,
2013-02-23 11:50:00,38.4,37.9,27.17,NNW,337,3.5,7.8,98,0.00,--,--,0.00,awk and wget,2013-02-23 16:50:00,
2013-02-23 12:00:00,38.9,38.3,27.16,SE,129,1.5,7.2,97,0.00,--,--,0.00,awk and wget,2013-02-23 17:00:00,
2013-02-23 12:10:00,40.1,39.3,27.16,SE,135,2.9,8.1,96,0.00,--,--,0.00,awk and wget,2013-02-23 17:10:00,
2013-02-23 12:20:00,40.4,38.9,27.16,NNW,334,1.2,8.1,94,0.00,--,--,0.00,awk and wget,2013-02-23 17:20:00,
2013-02-23 12:30:00,41.4,38.2,27.15,SE,138,1.8,7.4,88,0.00,--,--,0.00,awk and wget,2013-02-23 17:30:00,
2013-02-23 12:40:00,44.2,39.7,27.14,NNW,331,1.9,7.4,84,0.00,--,--,0.00,awk and wget,2013-02-23 17:40:00,
2013-02-23 12:50:00,45.6,40.5,27.14,NNW,331,1.5,8.5,82,0.00,--,--,0.00,awk and wget,2013-02-23 17:50:00,
2013-02-23 13:00:00,46.0,40.3,27.13,NNW,330,3.9,9.5,80,0.00,--,--,0.00,awk and wget,2013-02-23 18:00:00,
2013-02-23 13:10:00,47.7,40.0,27.13,ESE,121,1.4,10.7,74,0.00,--,--,0.00,awk and wget,2013-02-23 18:10:00,
2013-02-23 13:20:00,48.7,40.6,27.13,NNW,334,2.3,9.0,73,0.00,--,--,0.00,awk and wget,2013-02-23 18:20:00,
2013-02-23 13:30:00,49.6,39.0,27.12,NNW,335,2.8,9.0,66,0.00,--,--,0.00,awk and wget,2013-02-23 18:30:00,
2013-02-23 13:40:00,50.8,38.9,27.11,NNW,328,6.5,9.5,63,0.00,--,--,0.00,awk and wget,2013-02-23 18:40:00,
2013-02-23 13:50:00,51.7,37.3,27.11,NNW,334,2.2,8.4,57,0.00,--,--,0.00,awk and wget,2013-02-23 18:50:00,
2013-02-23 14:00:00,52.1,37.2,27.10,NNW,333,0.8,8.4,56,0.00,--,--,0.00,awk and wget,2013-02-23 19:00:00,
2013-02-23 14:10:00,52.6,37.5,27.10,NNW,333,3.0,8.5,56,0.00,--,--,0.00,awk and wget,2013-02-23 19:10:00,
2013-02-23 14:20:00,52.7,37.3,27.09,SE,133,0.5,11.5,55,0.00,--,--,0.00,awk and wget,2013-02-23 19:20:00,
2013-02-23 14:30:00,53.4,36.7,27.09,NNW,330,5.5,11.5,53,0.00,--,--,0.00,awk and wget,2013-02-23 19:30:00,
2013-02-23 14:40:00,54.3,36.1,27.08,NNW,335,3.6,8.8,50,0.00,--,--,0.00,awk and wget,2013-02-23 19:40:00,
2013-02-23 14:50:00,54.0,35.2,27.08,NNW,327,3.7,10.2,48,0.00,--,--,0.00,awk and wget,2013-02-23 19:50:00,
2013-02-23 15:00:00,54.2,35.3,27.08,NNW,332,1.0,8.5,48,0.00,--,--,0.00,awk and wget,2013-02-23 20:00:00,
2013-02-23 15:10:00,54.1,36.0,27.08,SE,137,2.4,8.0,50,0.00,--,--,0.00,awk and wget,2013-02-23 20:10:00,
2013-02-23 15:20:00,54.9,34.6,27.07,NNW,328,5.2,12.0,46,0.00,--,--,0.00,awk and wget,2013-02-23 20:20:00,
2013-02-23 15:30:00,54.5,33.7,27.08,NNW,331,2.7,11.8,45,0.00,--,--,0.00,awk and wget,2013-02-23 20:30:00,
2013-02-23 15:40:00,54.5,32.6,27.08,NW,326,7.6,12.6,43,0.00,--,--,0.00,awk and wget,2013-02-23 20:40:00,
2013-02-23 15:50:00,54.9,33.8,27.08,NW,326,7.8,11.5,44,0.00,--,--,0.00,awk and wget,2013-02-23 20:50:00,
2013-02-23 16:00:00,55.4,31.6,27.08,NNW,333,4.7,10.5,40,0.00,--,--,0.00,awk and wget,2013-02-23 21:00:00,
2013-02-23 16:10:00,54.8,32.8,27.08,NNW,331,3.1,10.0,43,0.00,--,--,0.00,awk and wget,2013-02-23 21:10:00,
2013-02-23 16:15:00,55.7,32.1,27.08,NNW,327,1.1,10.0,40,0.00,--,--,0.00,awk and wget,2013-02-23 21:15:00,
2013-02-23 16:20:00,55.3,32.6,27.08,NNW,330,2.3,13.8,41,0.00,--,--,0.00,awk and wget,2013-02-23 21:20:00,
2013-02-23 16:30:00,54.8,26.9,27.08,NNW,329,9.9,15.9,33,0.00,--,--,0.00,awk and wget,2013-02-23 21:30:00,
2013-02-23 16:40:00,55.4,26.7,27.08,NNW,331,14.0,15.8,32,0.00,--,--,0.00,awk and wget,2013-02-23 21:40:00,
2013-02-23 16:50:00,54.5,25.9,27.08,NW,326,16.3,19.3,32,0.00,--,--,0.00,awk and wget,2013-02-23 21:50:00,
2013-02-23 17:00:00,54.5,25.2,27.08,NNW,329,13.0,17.7,31,0.00,--,--,0.00,awk and wget,2013-02-23 22:00:00,
2013-02-23 17:10:00,54.1,24.7,27.07,NNW,328,10.2,16.6,31,0.00,--,--,0.00,awk and wget,2013-02-23 22:10:00,
2013-02-23 17:20:00,53.9,23.9,27.07,NNW,331,5.9,16.4,30,0.00,--,--,0.00,awk and wget,2013-02-23 22:20:00,
2013-02-23 17:30:00,52.0,26.7,27.08,NNW,328,6.4,14.4,37,0.00,--,--,0.00,awk and wget,2013-02-23 22:30:00,
2013-02-23 17:40:00,48.5,29.7,27.08,NW,326,7.3,10.2,47,0.00,--,--,0.00,awk and wget,2013-02-23 22:40:00,
2013-02-23 17:50:00,47.4,29.1,27.08,NW,326,7.5,11.1,48,0.00,--,--,0.00,awk and wget,2013-02-23 22:50:00,
2013-02-23 18:00:00,45.8,32.3,27.08,NNW,330,7.2,12.5,58,0.00,--,--,0.00,awk and wget,2013-02-23 23:00:00,
2013-02-23 18:10:00,45.9,33.0,27.08,NNW,332,5.2,12.3,60,0.00,--,--,0.00,awk and wget,2013-02-23 23:10:00,
2013-02-23 18:20:00,44.5,33.1,27.08,NNW,340,4.4,11.5,63,0.00,--,--,0.00,awk and wget,2013-02-23 23:20:00,
2013-02-23 18:30:00,41.3,32.0,27.08,NNW,334,5.2,10.3,69,0.00,--,--,0.00,awk and wget,2013-02-23 23:30:00,
2013-02-23 18:40:00,39.6,31.4,27.08,NNW,345,3.9,8.5,72,0.00,--,--,0.00,awk and wget,2013-02-23 23:40:00,
2013-02-23 18:50:00,38.1,31.6,27.08,NNW,333,2.0,7.7,77,0.00,--,--,0.00,awk and wget,2013-02-23 23:50:00,
2013-02-23 19:00:00,38.2,31.7,27.09,ENE,77,2.0,6.0,77,0.00,--,--,0.00,awk and wget,2013-02-24 00:00:00,
2013-02-23 19:10:00,37.3,31.6,27.08,NE,38,1.2,6.0,79,0.00,--,--,0.00,awk and wget,2013-02-24 00:10:00,
2013-02-23 19:20:00,36.3,31.4,27.08,ENE,76,1.8,6.0,82,0.00,--,--,0.00,awk and wget,2013-02-24 00:20:00,
2013-02-23 19:30:00,35.8,31.2,27.08,East,80,2.8,5.9,83,0.00,--,--,0.00,awk and wget,2013-02-24 00:30:00,
2013-02-23 19:35:00,35.6,31.3,27.08,East,79,2.0,6.0,83,0.00,--,--,0.00,awk and wget,2013-02-24 00:35:00,
2013-02-23 19:40:00,35.2,30.9,27.08,ENE,58,2.6,6.8,84,0.00,--,--,0.00,awk and wget,2013-02-24 00:40:00,
2013-02-23 19:45:00,34.5,30.5,27.08,NE,40,3.4,8.2,84,0.00,--,--,0.00,awk and wget,2013-02-24 00:45:00,
2013-02-23 19:50:00,34.5,30.7,27.07,NE,46,2.9,8.2,85,0.00,--,--,0.00,awk and wget,2013-02-24 00:50:00,
2013-02-23 20:00:00,34.4,30.7,27.08,NNW,336,3.6,7.8,86,0.00,--,--,0.00,awk and wget,2013-02-24 01:00:00,
2013-02-23 20:10:00,34.5,30.8,27.07,NNE,23,2.6,6.6,86,0.00,--,--,0.00,awk and wget,2013-02-24 01:10:00,
2013-02-23 20:15:00,33.8,30.0,27.08,NNW,338,3.0,6.6,85,0.00,--,--,0.00,awk and wget,2013-02-24 01:15:00,
2013-02-23 20:20:00,33.4,29.9,27.08,East,98,4.2,6.6,86,0.00,--,--,0.00,awk and wget,2013-02-24 01:20:00,
2013-02-23 20:30:00,32.8,29.6,27.08,NNW,337,1.9,5.7,87,0.00,--,--,0.00,awk and wget,2013-02-24 01:30:00,
2013-02-23 20:35:00,32.4,29.5,27.08,ESE,117,2.4,4.5,89,0.00,--,--,0.00,awk and wget,2013-02-24 01:35:00,
2013-02-23 20:40:00,32.1,29.4,27.08,ESE,118,1.2,4.5,89,0.00,--,--,0.00,awk and wget,2013-02-24 01:40:00,
2013-02-23 20:45:00,32.1,29.6,27.08,East,85,1.0,4.5,90,0.00,--,--,0.00,awk and wget,2013-02-24 01:45:00,
2013-02-23 20:50:00,32.0,29.6,27.08,NNW,335,0.2,4.5,90,0.00,--,--,0.00,awk and wget,2013-02-24 01:50:00,
2013-02-23 21:00:00,32.7,30.3,27.08,ENE,71,0.0,5.4,90,0.00,--,--,0.00,awk and wget,2013-02-24 02:00:00,
2013-02-23 21:10:00,32.9,30.3,27.08,NNE,23,3.5,5.6,89,0.00,--,--,0.00,awk and wget,2013-02-24 02:10:00,
2013-02-23 21:20:00,32.8,30.2,27.08,NNW,339,3.8,6.4,89,0.00,--,--,0.00,awk and wget,2013-02-24 02:20:00,
2013-02-23 21:25:00,31.9,29.0,27.08,North,3,1.1,6.4,89,0.00,--,--,0.00,awk and wget,2013-02-24 02:25:00,
2013-02-23 21:30:00,31.6,28.8,27.08,NE,43,4.3,6.3,89,0.00,--,--,0.00,awk and wget,2013-02-24 02:30:00,
2013-02-23 21:40:00,31.0,28.7,27.08,NNE,30,4.4,5.8,90,0.00,--,--,0.00,awk and wget,2013-02-24 02:40:00,
2013-02-23 21:50:00,30.7,28.4,27.08,ENE,66,2.5,6.2,91,0.00,--,--,0.00,awk and wget,2013-02-24 02:50:00,
2013-02-23 22:00:00,30.5,28.3,27.07,ENE,76,3.6,6.2,91,0.00,--,--,0.00,awk and wget,2013-02-24 03:00:00,
2013-02-23 22:10:00,30.1,28.1,27.07,NNW,338,1.9,5.8,92,0.00,--,--,0.00,awk and wget,2013-02-24 03:10:00,
2013-02-23 22:20:00,30.2,28.4,27.07,ENE,69,3.2,5.8,93,0.00,--,--,0.00,awk and wget,2013-02-24 03:20:00,
2013-02-23 22:30:00,29.5,27.9,27.07,NE,44,1.6,5.8,93,0.00,--,--,0.00,awk and wget,2013-02-24 03:30:00,
2013-02-23 22:40:00,29.1,27.5,27.07,NE,35,2.9,7.5,93,0.00,--,--,0.00,awk and wget,2013-02-24 03:40:00,
2013-02-23 22:50:00,28.3,26.8,27.07,NE,36,3.4,7.5,94,0.00,--,--,0.00,awk and wget,2013-02-24 03:50:00,
2013-02-23 23:00:00,28.1,26.8,27.07,NE,49,2.9,8.9,94,0.00,--,--,0.00,awk and wget,2013-02-24 04:00:00,
2013-02-23 23:10:00,28.2,26.9,27.06,NE,52,0.4,6.7,94,0.00,--,--,0.00,awk and wget,2013-02-24 04:10:00,
2013-02-23 23:20:00,27.6,26.4,27.06,NNW,339,0.6,6.0,95,0.00,--,--,0.00,awk and wget,2013-02-24 04:20:00,
2013-02-23 23:30:00,26.9,25.8,27.07,NNW,335,0.1,4.9,95,0.00,--,--,0.00,awk and wget,2013-02-24 04:30:00,
2013-02-23 23:35:00,26.9,25.8,27.07,East,88,0.6,4.7,95,0.00,--,--,0.00,awk and wget,2013-02-24 04:35:00,
2013-02-23 23:40:00,26.9,25.8,27.07,NNW,340,1.3,4.7,95,0.00,--,--,0.00,awk and wget,2013-02-24 04:40:00,
2013-02-23 23:50:00,26.9,25.8,27.07,SE,128,0.2,4.4,95,0.00,--,--,0.00,awk and wget,2013-02-24 04:50:00,
2013-02-23 23:55:00,26.9,25.8,27.08,NNW,340,0.0,3.6,95,0.00,--,--,0.00,awk and wget,2013-02-24 04:55:00,